Francistown, Botswana

6:08 PM CAT on August 19, 2017 (GMT +0200)
Francistown

Weather History for FBFT - November, 2012

Change the Weather History Date:

Thursday, November 29, 2012

  Actual Average Record
Temperature  
Mean Temperature 73 °F -  
Max Temperature 90 °F 85 °F 100 °F (2010)
Min Temperature 56 °F 65 °F 39 °F (2003)
Cooling Degree Days 8    
Growing Degree Days 23 (Base 50)    
Moisture  
Dew Point 51 °F    
Average Humidity 45    
Maximum Humidity 88    
Minimum Humidity 16    
Precipitation  
Precipitation 0.00 in - - ()
Sea Level Pressure  
Sea Level Pressure 30.05 in    
Wind  
Wind Speed 4 mph ()    
Max Wind Speed 12 mph    
Max Gust Speed -    
Visibility 6.1 miles    
Events      
Averages and records for this station are not official NWS values.
T = Trace of Precipitation, MM = Missing Value Source: Averaged Metar Reports

Daily Weather History Graph

Daily Weather History Graph

Search for Another Location

Airport or City:

Trip Planner

Search our weather history database for the weather conditions in past years. The results will help you decide how hot, cold, wet, or windy it might be!

Date:

Astronomy

Nov. 29, 2012 Rise Set
Actual Time 5:19 AM CAT 6:37 PM CAT
Civil Twilight 4:54 AM CAT 7:02 PM CAT
Nautical Twilight 4:25 AM CAT 7:31 PM CAT
Astronomical Twilight 3:55 AM CAT 8:01 PM CAT
Moon 7:25 PM CAT (11/29) 5:49 AM CAT (11/29)
Length of Visible Light 14h 07m
Length of Day
13h 18m
Waxing Gibbous, 99% of the Moon is Illuminated
Nov 29
Waxing Gibbous
Dec 6
Last Quarter
Dec 13
New
Dec 20
First Quarter
Dec 28
Full

Hourly Weather History & Observations

Time (CAT) Temp. Heat Index Dew Point Humidity Pressure Visibility Wind Dir Wind Speed Gust Speed Precip Events Conditions
12:00 AM 71.6 °F - 53.6 °F 53% 30.15 in - ESE 6.9 mph - N/A   Clear
1:00 AM 69.8 °F - 51.8 °F 53% 30.15 in - ESE 3.5 mph - N/A   Clear
2:00 AM 69.8 °F - 51.8 °F 53% 30.12 in - SE 4.6 mph - N/A   Clear
3:00 AM 68.0 °F - 51.8 °F 56% 30.12 in - SSE 2.3 mph - N/A   Clear
4:00 AM 68.0 °F - 51.8 °F 56% 30.12 in - SSW 2.3 mph - N/A   Clear
5:00 AM 57.2 °F - 53.6 °F 88% 30.12 in - WNW 6.9 mph - N/A   Clear
6:00 AM 57.2 °F - 53.6 °F 88% 30.12 in - Calm Calm - N/A   Clear
7:00 AM 64.4 °F - 57.2 °F 77% 30.12 in - Calm Calm - N/A   Clear
8:00 AM 70 °F - 57 °F 53%  in 6 mi ENE 3.5 mph - -   Clear
8:00 AM 69.8 °F - 60.8 °F 73% 30.12 in - ENE 3.5 mph - N/A   Clear
9:00 AM 75.2 °F - 57.2 °F 53% 30.12 in - Variable 2.3 mph - N/A   Clear
10:00 AM 80.6 °F 80.8 °F 57.2 °F 45% 30.09 in - WSW 3.5 mph - N/A   Clear
11:00 AM 84.2 °F - 46.4 °F 27% 30.06 in 6.2 mi NE 10.4 mph - N/A   Partly Cloudy
12:00 PM 86.0 °F - 50.0 °F 29% 30.06 in - Variable 2.3 mph - N/A   Clear
1:00 PM 87.8 °F - 51.8 °F 29% 30.04 in 6.2 mi East 8.1 mph - N/A   Partly Cloudy
2:00 PM 88 °F - 49 °F 16%  in 6 mi SW 4.6 mph - -   Partly Cloudy
2:00 PM 87.8 °F - 48.2 °F 25% 30.01 in 6.2 mi SW 4.6 mph - N/A   Partly Cloudy
3:00 PM 89.6 °F - 42.8 °F 20% 29.98 in 6.2 mi WNW 6.9 mph - N/A   Partly Cloudy
4:00 PM 89.6 °F - 48.2 °F 24% 29.95 in 6.2 mi East 3.5 mph - N/A   Partly Cloudy
5:00 PM 87.8 °F - 44.6 °F 22% 29.95 in 6.2 mi East 6.9 mph - N/A   Partly Cloudy
6:00 PM 87.8 °F - 41.0 °F 19% 29.92 in 6.2 mi East 11.5 mph - N/A   Partly Cloudy
7:00 PM 84.2 °F - 44.6 °F 25% 29.92 in - ESE 3.5 mph - N/A   Clear
8:00 PM 78 °F - 50 °F 27%  in 6 mi SE 4.6 mph - -  
8:00 PM 78.8 °F - 50.0 °F 36% 29.95 in - SE 4.6 mph - N/A   Clear
9:00 PM 73.4 °F - 53.6 °F 50% 29.98 in - SE 4.6 mph - N/A   Clear
10:00 PM 73.4 °F - 55.4 °F 53% 29.98 in - SE 4.6 mph - N/A   Clear
11:00 PM 71.6 °F - 53.6 °F 53% 29.98 in - ESE 4.6 mph - N/A   Clear